Tracking 28096 objects as of 29-Sep-2023
HD Live streaming from Space Station
objects crossing your sky now

COSMOS 839 DEB

Track COSMOS 839 DEB now!
10-day predictions


NORAD ID: 10410
Int'l Code: 1976-067D
Perigee: 1,005.8 km
Apogee: 2,081.5 km
Inclination: 66.1 °
Period: 116.8 minutes
Semi major axis: 7914 km
RCS: 0.3034 m2 (medium)
Launch date: July 8, 1976
Source: Commonwealth of Independent States (former USSR) (CIS)
Launch site: PLESETSK MISSILE AND SPACE COMPLEX (PKMTR)

Note: This is SATELLITE DEBRIS
Your satellite tracking list
Your tracking list is empty




NASA's NSSDC Master Catalog

Two Line Element Set (TLE):
1 10410U 76067D   23271.62338288 -.00000016  00000-0  13764-3 0  9999
2 10410  66.0926 329.7126 0679563  66.6762   9.3494 12.32976492125828
Source of the keplerian elements: AFSPC